ARIANE 1 DEB, 28556

Orbit data source: Space-Track

ARIANE 1 DEB, 28556 is space debris in HEO originally from a launch on Mon, 24 Dec 1979 UTC launched from the French Guiana (FRGUI). Debris objects in space refer to the collection of defunct objects orbiting the Earth. Examples of debris include non-operational satellites, rocket bodies, and fragments generated from explosions, collisions, or faulty payload assembly.

Loading next visibility...
Identifier
28556, 1979-104V
Orbit
HEO
Country
Flag of FRFR
Related business
Manufacturer
Unknown
Mission
Spacecraft
Bus & Motor
Unknown
Mass
Unknown
Launch date (UTC)
1979-12-24 (46 years ago)
Launch vehicle
Unknown
Launch site
French Guiana (FRGUI)
Object type
Payload
Rocket body
Debris
Shape & HBR
Unknown shape, 0.2 m
Radar Cross Section
Medium (>0.1 m² and <1 m²)

Expand to show TLE details & history
Last TLE update: 3 days ago

TLE from 3 days ago
0 ARIANE 1 DEB
1 28556U 79104V   26059.36819597  .00000146  00000-0  93820-2 0  9992
2 28556  16.0585 281.1344 7327718   0.7274 246.2519  1.95727441 93226
Epoch: 2026-02-28T08:50Z
TLE epoch observation values (Epoch: 2026-02-28T08:50:12.131Z)
Latitude
-4.5842°
Longitude
-173.3752°
Altitude
35,893.154 km
Speed
2.023 km/s
True Right ascension
07h 49m 27s
True Declination
-4° 34' 47"
Sunlit
Object was in daylight at epoch
Visualization orbit readout
Latitude
Unknown
Longitude
Unknown
Altitude
Unknown
Speed
Unknown
Apparent Right ascension
Unknown
Apparent Declination
Unknown
Sunlit
N/A
Visualization observer readout
Local Sidereal Time
19:09:01
Azimuth
Unknown
Elevation
Unknown
Doppler factor
Unknown
Orbital elements
Apogee altitude
40,407.88 km
Perigee altitude
837.206 km
Semi-major axis
27,000.68 km
Eccentricity
0.73277
Inclination
16.0585°
RAAN
281.1344°
Arg. of periapsis
0.7274°
True anomaly
196.0641°
Mean anomaly
246.2519°
Eccentric anomaly
219.5296°
Mean motion
0.48919 °/min
Orbital period
735.9 mins
BSTAR
0.009382
Loading maneuver chart data...
Computing Atmospheric mass density...
Loading historical data...
Loading historical data...
Loading historical data...
Loading historical data...
Loading historical data...
Loading historical data...
Loading historical data...

Documentation

Showing up to 5 results
|